Regional Weather Roundup
Issued by NWS

Home | Current Version | Previous Version | Graphics & Text | Print | Product List | Glossary On
Versions: 1 2 3 4 5 6 7 8 9 10 11 12 13 14 15 16 17 18 19 20 21 22 23 24 25 26 27 28 29 30 31 32 33 34 35 36 37 38 39 40 41 42 43 44 45 46 47 48 49 50
000
ASUS44 KMEG 222210
RWRTN
TENNESSEE HOURLY STATE WEATHER ROUNDUP
NATIONAL WEATHER SERVICE MEMPHIS TN
500 PM CDT TUE JUL 22 2014

TNZ002-004-019-021-049-052-054-088>092-222300-
WEST TENNESSEE

CITY           SKY/WX    TMP DP  RH WIND       PRES   REMARKS
MEMPHIS INTL   MOSUNNY   91  70  49 NW6       30.04F HX  96
NWS MEMPHIS      N/A     91 N/A N/A MISG        N/A
JACKSON        SUNNY     89  70  53 NW6       30.04F HX  94
DYERSBURG      SUNNY     91  66  43 NW5       30.05S HX  94
UNION CITY     SUNNY     88  72  58 VRB3      30.03F HX  94
PARIS          SUNNY     88  72  58 W3        30.05F HX  94
LEXINGTON      SUNNY     88  73  62 CALM      30.04S HX  96
SAVANNAH       SUNNY     88  75  65 CALM      30.05S HX  97
$$

TNZ008-025-027-028-033-062-065-066-222300-
NORTH MIDDLE TENNESSEE

CITY           SKY/WX    TMP DP  RH WIND       PRES   REMARKS
NASHVILLE      PTSUNNY   89  70  53 S6        30.05F HX  94
DICKSON        MOSUNNY   90  70  51 SW6       30.06F HX  95
PORTLAND       SUNNY     90  70  51 S5        30.05F HX  95
CLARKSVILLE    PTSUNNY   93  68  43 W7        30.03S HX  97
SMYRNA         MOSUNNY   94  73  50 W6        30.05F HX 103
MURFREESBORO   MOSUNNY   90  69  49 SE3       30.05F HX  94
COOKEVILLE     SUNNY     91  72  52 CALM      30.08F HX  98
GALLATIN       MOSUNNY   92  69  46 SW5       30.05F HX  96
CROSSVILLE     PTSUNNY   84  67  56 VRB5      30.14S
$$

TNZ061-075-076-078-094-096-097-222300-
SOUTH MIDDLE TENNESSEE

CITY           SKY/WX    TMP DP  RH WIND       PRES   REMARKS
LEWISBURG      MOSUNNY   90  70  51 CALM      30.06F HX  95
FAYETTEVILLE   SUNNY     86  66  51 SW8       30.08F
TULLAHOMA      PTSUNNY   86  70  58 CALM      30.09F HX  90
WINCHESTER     MOSUNNY   86  70  58 CALM      30.07F HX  90
MCMINNVILLE    MOSUNNY   88  72  58 CALM      30.08F HX  94
COLUMBIA       SUNNY     90  73  58 E5        30.05S HX  98
SHELBYVILLE    MOSUNNY   90  73  58 E3        30.07F HX  98
$$

TNZ017-018-042-046-047-222300-
NORTHEAST TENNESSEE

CITY           SKY/WX    TMP DP  RH WIND       PRES   REMARKS
TRI CITIES     MOSUNNY   87  66  49 N5        30.10F
ELIZABETHTON   PTCLDY    82  64  54 S3        30.11S
$$

TNZ012-013-036-069-073-074-222300-
CENTRAL EAST TENNESSEE

CITY           SKY/WX    TMP DP  RH WIND       PRES   REMARKS
KNOXVILLE      PTSUNNY   85  68  56 NW3       30.07S
OAK RIDGE      MOSUNNY   88  70  55 VRB3      30.09S HX  93
GATLINBURG     PTCLDY    88  66  48 CALM      30.07S HX  90
MORRISTOWN     CLEAR     86  68  54 NW7       30.11S
$$

TNZ083-085-099-222300-
SOUTHEAST TENNESSEE

CITY           SKY/WX    TMP DP  RH WIND       PRES   REMARKS
CHATTANOOGA    PTSUNNY   81  68  64 NE5       30.08F
$$

SKY/WX REPORTED AS FAIR MEANS FEW OR NO CLOUDS BELOW
12 THOUSAND FEET.



USA.gov is the U.S. government's official web portal to all federal, state and local government web resources and services.